Time,TemperatureF,DewpointF,PressureIn,WindDirection,WindDirectionDegrees,WindSpeedMPH,WindSpeedGustMPH,Humidity,HourlyPrecipIn,Conditions,Clouds,dailyrainin,SoftwareType,DateUTC
2015-01-29 00:00:00,5.2,1.2,30.22,NW,321,0.0,0.0,83,0.00,,---,0.00,VWS V15.00,2015-01-29 05:00:00,
2015-01-29 00:05:00,5.1,1.1,30.22,NW,321,0.0,0.0,83,0.00,,---,0.00,VWS V15.00,2015-01-29 05:05:00,
2015-01-29 00:10:00,5.0,1.0,30.22,NW,321,0.0,0.0,83,0.00,,---,0.00,VWS V15.00,2015-01-29 05:10:00,
2015-01-29 00:15:00,4.7,0.7,30.22,NW,321,0.0,0.0,83,0.00,,---,0.00,VWS V15.00,2015-01-29 05:15:00,
2015-01-29 00:20:00,4.5,0.5,30.22,NW,321,0.0,0.0,83,0.00,,---,0.00,VWS V15.00,2015-01-29 05:20:00,
2015-01-29 00:26:00,4.3,0.3,30.22,NW,321,0.0,0.0,83,0.00,,---,0.00,VWS V15.00,2015-01-29 05:26:00,
2015-01-29 00:31:00,4.0,0.0,30.22,NW,321,0.0,0.0,83,0.00,,---,0.00,VWS V15.00,2015-01-29 05:31:00,
2015-01-29 00:36:00,3.8,-0.2,30.22,NW,321,0.0,0.0,83,0.00,,---,0.00,VWS V15.00,2015-01-29 05:36:00,
2015-01-29 00:41:00,3.8,-0.2,30.22,NW,321,0.0,0.0,83,0.00,,---,0.00,VWS V15.00,2015-01-29 05:41:00,
2015-01-29 00:46:00,3.6,-0.4,30.22,NW,321,0.0,0.0,83,0.00,,---,0.00,VWS V15.00,2015-01-29 05:46:00,
2015-01-29 00:51:00,3.4,-0.6,30.23,NW,321,0.0,0.0,83,0.00,,---,0.00,VWS V15.00,2015-01-29 05:51:00,
2015-01-29 00:56:00,3.4,-0.6,30.23,NW,321,0.0,0.0,83,0.00,,---,0.00,VWS V15.00,2015-01-29 05:56:00,
2015-01-29 01:01:00,3.3,-0.4,30.23,NW,321,0.0,0.0,84,0.00,,---,0.00,VWS V15.00,2015-01-29 06:01:00,
2015-01-29 01:06:00,3.2,-0.5,30.23,NW,321,0.0,0.0,84,0.00,,---,0.00,VWS V15.00,2015-01-29 06:06:00,
2015-01-29 01:11:00,3.1,-0.6,30.23,NW,321,0.0,0.0,84,0.00,,---,0.00,VWS V15.00,2015-01-29 06:11:00,
2015-01-29 01:16:00,3.1,-0.6,30.23,NW,321,0.0,0.0,84,0.00,,---,0.00,VWS V15.00,2015-01-29 06:16:00,
2015-01-29 01:21:00,2.9,-0.8,30.24,NW,321,0.0,0.0,84,0.00,,---,0.00,VWS V15.00,2015-01-29 06:21:00,
2015-01-29 01:26:00,2.8,-0.9,30.24,NW,321,0.0,0.0,84,0.00,,---,0.00,VWS V15.00,2015-01-29 06:26:00,
2015-01-29 01:31:00,2.6,-1.1,30.24,NW,321,0.0,0.0,84,0.00,,---,0.00,VWS V15.00,2015-01-29 06:31:00,
2015-01-29 01:36:00,2.4,-1.3,30.24,NW,321,0.0,0.0,84,0.00,,---,0.00,VWS V15.00,2015-01-29 06:36:00,
2015-01-29 01:41:00,2.0,-1.7,30.24,NW,321,0.0,0.0,84,0.00,,---,0.00,VWS V15.00,2015-01-29 06:41:00,
2015-01-29 01:46:00,1.8,-1.9,30.25,NW,321,0.0,0.0,84,0.00,,---,0.00,VWS V15.00,2015-01-29 06:46:00,
2015-01-29 01:51:00,1.5,-2.2,30.25,NW,321,0.0,0.0,84,0.00,,---,0.00,VWS V15.00,2015-01-29 06:51:00,
2015-01-29 01:57:00,1.4,-2.3,30.25,NW,321,0.0,0.0,84,0.00,,---,0.00,VWS V15.00,2015-01-29 06:57:00,
2015-01-29 02:02:00,1.2,-2.5,30.25,NW,321,0.0,0.0,84,0.00,,---,0.00,VWS V15.00,2015-01-29 07:02:00,
2015-01-29 02:07:00,1.0,-2.7,30.25,NW,321,0.0,0.0,84,0.00,,---,0.00,VWS V15.00,2015-01-29 07:07:00,
2015-01-29 02:12:00,0.9,-2.8,30.25,NW,321,0.0,1.0,84,0.00,,---,0.00,VWS V15.00,2015-01-29 07:12:00,
2015-01-29 02:17:00,0.6,-3.1,30.25,NW,321,0.0,0.0,84,0.00,,---,0.00,VWS V15.00,2015-01-29 07:17:00,
2015-01-29 02:22:00,0.6,-2.8,30.25,NW,321,0.0,0.0,85,0.00,,---,0.00,VWS V15.00,2015-01-29 07:22:00,
2015-01-29 02:27:00,0.8,-2.6,30.25,NW,321,0.0,0.0,85,0.00,,---,0.00,VWS V15.00,2015-01-29 07:27:00,
2015-01-29 02:32:00,0.8,-2.6,30.25,NW,321,0.0,0.0,85,0.00,,---,0.00,VWS V15.00,2015-01-29 07:32:00,
2015-01-29 02:37:00,0.6,-2.8,30.25,NW,321,0.0,0.0,85,0.00,,---,0.00,VWS V15.00,2015-01-29 07:37:00,
2015-01-29 02:42:00,0.5,-2.9,30.25,NW,321,0.0,0.0,85,0.00,,---,0.00,VWS V15.00,2015-01-29 07:42:00,
2015-01-29 02:47:00,0.2,-3.2,30.25,NW,321,0.0,0.0,85,0.00,,---,0.00,VWS V15.00,2015-01-29 07:47:00,
2015-01-29 02:52:00,-0.2,-3.9,30.25,NW,321,0.0,0.0,84,0.00,,---,0.00,VWS V15.00,2015-01-29 07:52:00,
2015-01-29 02:57:00,-0.4,-4.1,30.25,NW,321,0.0,0.0,84,0.00,,---,0.00,VWS V15.00,2015-01-29 07:57:00,
2015-01-29 03:02:00,-0.5,-3.9,30.25,NW,321,0.0,0.0,85,0.00,,---,0.00,VWS V15.00,2015-01-29 08:02:00,
2015-01-29 03:07:00,-0.5,-3.7,30.24,NW,321,0.0,0.0,86,0.00,,---,0.00,VWS V15.00,2015-01-29 08:07:00,
2015-01-29 03:12:00,-0.5,-3.7,30.24,NW,321,0.0,0.0,86,0.00,,---,0.00,VWS V15.00,2015-01-29 08:12:00,
2015-01-29 03:17:00,-0.6,-4.0,30.25,NW,321,0.0,0.0,85,0.00,,---,0.00,VWS V15.00,2015-01-29 08:17:00,
2015-01-29 03:23:00,-0.9,-4.3,30.25,NW,321,0.0,0.0,85,0.00,,---,0.00,VWS V15.00,2015-01-29 08:23:00,
2015-01-29 03:28:00,-1.4,-5.1,30.26,NW,321,0.0,2.0,84,0.00,,---,0.00,VWS V15.00,2015-01-29 08:28:00,
2015-01-29 03:33:00,-1.9,-5.5,30.25,NW,321,0.0,0.0,84,0.00,,---,0.00,VWS V15.00,2015-01-29 08:33:00,
2015-01-29 03:38:00,-2.3,-5.9,30.25,NW,321,0.0,0.0,84,0.00,,---,0.00,VWS V15.00,2015-01-29 08:38:00,
2015-01-29 03:43:00,-2.6,-6.2,30.26,NW,321,0.0,0.0,84,0.00,,---,0.00,VWS V15.00,2015-01-29 08:43:00,
2015-01-29 03:48:00,-2.8,-6.4,30.26,NW,321,0.0,0.0,84,0.00,,---,0.00,VWS V15.00,2015-01-29 08:48:00,
2015-01-29 03:53:00,-3.1,-6.7,30.27,NW,321,0.0,0.0,84,0.00,,---,0.00,VWS V15.00,2015-01-29 08:53:00,
2015-01-29 03:58:00,-3.4,-7.0,30.27,NW,321,0.0,0.0,84,0.00,,---,0.00,VWS V15.00,2015-01-29 08:58:00,
2015-01-29 04:03:00,-3.4,-6.8,30.26,NW,321,0.0,0.0,85,0.00,,---,0.00,VWS V15.00,2015-01-29 09:03:00,